CHINASAT 5A (ZX 5A) (25354 NORAD) Tracking and Keplerian Element Data

This shows tracking and keplerian element data for the satellite.

Feedback or suggestion? Click here.




ElementValue
Catalog25354
NameCHINASAT 5A (ZX 5A)
Epoch Orbit7847
Epoch Day222.61785626
Epoch Year2018
RAAN84.8181
Inclination2.1354
Eccentricity7.35E-05
Argument of Perigee57.6412
Mean Anonmoly261.4517
Mean Motion0.98992843
Decay Rate3.1E-07
L11 25354U 98033A 18222.61785626 .00000031 00000-0 00000+0 0 9991
L22 25354 2.1354 84.8181 0000735 57.6412 261.4517 0.98992843 78470



Live tracking and technical data element details for CHINASAT 5A (ZX 5A) (NORAD 25354). CHINASAT 5A (ZX 5A) can be tracked NOW for your location showing map with azimuth and elevation plus other details from your city location.







IsCatalogInMostPopularTable: catalog: 25354, numindb: 305
Update: records affected: 1



GetName: 25354 CHINASAT 5A (ZX 5A)

Hit Count: updated at: Fri, 16 May 2025 11:24:53 GMT